CW2927 Weather Reports


time (UTC)temp
C
wind
direction
speed
KPH
gust
KPH
rain 1hr
cm
rain 24hr
cm
rain mn
cm
humidity
%
barometer
mb
20260505092204 11 142 3.2 12.9 0.00 0.79 0.00 73 1000.4
20260505090704 10 138 4.8 9.7 0.00 0.79 0.00 76 1000.5
20260505090204 10 130 3.2 9.7 0.00 0.79 0.00 76 1000.5
20260505084704 10 140 3.2 4.8 0.00 0.79 0.00 75 1000.6
20260505084204 10 140 3.2 4.8 0.00 0.79 0.00 74 1000.7
20260505082704 11 141 4.8 8.0 0.00 0.79 0.00 74 1000.8
20260505082204 11 141 3.2 9.7 0.00 0.79 0.00 74 1000.7
20260505080704 10 135 3.2 8.0 0.00 0.79 0.00 75 1000.7
20260505080204 10 132 3.2 12.9 0.00 0.79 0.00 76 1000.7
20260505074705 10 131 4.8 8.0 0.00 0.79 0.00 76 1000.7
20260505074205 10 132 3.2 8.0 0.00 0.79 0.00 75 1000.7
20260505072705 10 145 3.2 4.8 0.00 0.79 0.00 75 1000.8
20260505072205 10 147 3.2 8.0 0.00 0.79 0.00 75 1000.9
20260505070705 11 154 4.8 8.0 0.00 0.79 0.00 74 1000.9
20260505070205 11 155 3.2 8.0 0.00 0.79 0.00 74 1000.9
20260505064706 11 161 3.2 11.3 0.00 0.79 0.00 73 1001.0
20260505064205 11 157 6.4 11.3 0.00 0.79 0.00 73 1001.0
20260505062705 11 145 4.8 9.7 0.00 0.79 0.00 74 1001.0
20260505062205 11 152 4.8 8.0 0.00 0.79 0.00 74 1001.1
20260505060705 11 145 4.8 11.3 0.00 0.79 0.00 75 1001.1
20260505060205 11 150 4.8 9.7 0.00 0.79 0.00 75 1001.2
20260505054705 10 144 4.8 8.0 0.00 0.79 0.00 78 1001.2
20260505054205 10 136 3.2 9.7 0.00 0.79 0.00 79 1001.2
20260505052705 10 117 3.2 8.0 0.00 0.79 0.00 81 1001.4
20260505052205 10 116 3.2 8.0 0.00 0.79 0.00 81 1001.4
20260505050705 10 104 3.2 8.0 0.00 0.79 0.00 82 1001.6
20260505050205 10 103 3.2 4.8 0.00 0.79 0.00 82 1001.6
20260505040705 9 90 1.6 4.8 0.00 0.79 0.00 84 1002.0
20260505040204 10 90 1.6 4.8 0.00 0.79 0.00 84 1002.0
20260505034705 10 90 1.6 4.8 0.00 0.79 0.79 84 1002.0
20260505034205 10 90 1.6 4.8 0.00 0.79 0.79 84 1002.0
20260505032705 10 90 3.2 8.0 0.00 0.79 0.79 84 1002.0
20260505032205 10 90 1.6 4.8 0.00 0.79 0.79 84 1002.0
20260505030705 10 90 3.2 9.7 0.00 0.79 0.79 84 1002.2
20260505030205 10 90 4.8 8.0 0.00 0.79 0.79 84 1002.2
20260505024705 10 88 3.2 4.8 0.00 0.79 0.79 84 1002.4
20260505024205 11 88 3.2 8.0 0.00 0.79 0.79 84 1002.5
20260505022704 11 88 1.6 4.8 0.00 0.79 0.79 84 1002.8
20260505022205 11 88 1.6 8.0 0.00 0.79 0.79 84 1002.7
20260505020705 11 88 4.8 8.0 0.00 0.79 0.79 83 1002.7
20260505020205 11 88 3.2 9.7 0.00 0.79 0.79 83 1002.8
20260505014705 11 88 3.2 4.8 0.00 0.79 0.79 83 1002.9
20260505014205 11 88 1.6 8.0 0.00 0.79 0.79 82 1003.0
20260505012705 12 88 4.8 9.7 0.00 0.79 0.79 82 1003.2
20260505012205 12 88 4.8 11.3 0.00 0.79 0.79 81 1003.2
20260505010705 12 90 8.0 11.3 0.00 0.79 0.79 80 1003.1
20260505010205 12 100 6.4 9.7 0.00 0.79 0.79 80 1003.3
20260505004705 12 104 3.2 4.8 0.00 0.79 0.79 79 1003.2
20260505004204 12 104 3.2 11.3 0.00 0.79 0.79 78 1002.9
20260505002704 12 138 3.2 8.0 0.00 0.79 0.79 78 1003.2
20260505002204 12 152 3.2 4.8 0.00 0.79 0.79 79 1003.1
20260505000705 12 167 3.2 4.8 0.00 0.79 0.79 80 1002.8
20260505000205 12 167 1.6 4.8 0.00 0.79 0.79 80 1002.9
20260504234705 12 169 1.6 3.2 0.00 0.79 0.79 80 1002.8
20260504232705 13 169 0.0 0.0 0.00 0.79 0.79 75 1002.8
20260504232205 13 169 0.0 3.2 0.00 0.79 0.79 76 1002.8
20260504230705 14 169 0.0 0.0 0.00 0.79 0.79 74 1002.7
20260504230205 14 169 0.0 3.2 0.00 0.79 0.79 72 1002.7
20260504224705 14 169 1.6 4.8 0.00 0.79 0.79 72 1002.7
20260504224205 14 169 1.6 4.8 0.00 0.79 0.79 72 1002.7
20260504222704 15 169 1.6 3.2 0.00 0.79 0.79 70 1002.7
20260504222204 15 169 3.2 8.0 0.00 0.79 0.79 69 1002.9
20260504220704 15 167 3.2 4.8 0.00 0.79 0.79 71 1003.0
20260504220205 15 167 3.2 11.3 0.00 0.79 0.79 72 1003.0
20260504214704 15 169 3.2 9.7 0.00 0.79 0.79 72 1003.1
20260504214205 15 161 6.4 14.5 0.00 0.79 0.79 71 1003.1
20260504212704 14 191 1.6 9.7 0.00 0.79 0.79 73 1003.1
20260504212204 14 192 4.8 11.3 0.00 0.79 0.79 74 1003.2
20260504210705 13 185 3.2 8.0 0.00 0.79 0.79 75 1003.3
20260504210205 13 182 4.8 11.3 0.00 0.79 0.79 75 1003.3
20260504204705 13 207 6.4 11.3 0.00 0.79 0.79 76 1003.3
20260504202704 13 234 4.8 9.7 0.00 0.79 0.79 75 1003.4
20260504202205 13 182 8.0 12.9 0.00 0.79 0.79 75 1003.5
20260504200704 13 215 4.8 9.7 0.00 0.79 0.79 75 1003.4
20260504200204 13 169 3.2 14.5 0.00 0.79 0.79 77 1003.4
20260504194705 12 171 3.2 4.8 0.00 0.79 0.79 80 1003.5
20260504194205 12 168 3.2 14.5 0.00 0.79 0.79 81 1003.6
20260504192704 12 180 4.8 11.3 0.00 0.79 0.79 78 1003.9
20260504192204 12 241 3.2 14.5 0.00 0.79 0.79 80 1003.9
20260504190705 12 216 6.4 11.3 0.00 0.79 0.79 80 1004.0
20260504190204 12 192 3.2 9.7 0.00 0.79 0.79 80 1003.9
20260504184704 10 258 3.2 4.8 0.00 0.79 0.79 83 1004.2
20260504184205 10 260 4.8 8.0 0.00 0.79 0.79 83 1004.3
20260504182704 10 264 4.8 9.7 0.00 0.79 0.79 82 1004.3
20260504182204 10 279 1.6 11.3 0.00 0.79 0.79 83 1004.3
20260504180704 10 293 6.4 14.5 0.00 0.79 0.79 82 1004.4
20260504180204 10 266 6.4 14.5 0.00 0.79 0.79 82 1004.3
20260504174705 10 253 8.0 16.1 0.00 0.79 0.79 81 1004.3
20260504174204 11 264 8.0 20.9 0.00 0.79 0.79 81 1004.3
20260504172704 11 281 9.7 14.5 0.00 0.79 0.79 83 1004.3
20260504172204 10 290 9.7 22.5 0.00 0.79 0.79 84 1004.2
20260504170704 10 284 8.0 19.3 0.00 0.79 0.79 86 1004.4
20260504170204 10 285 11.3 19.3 0.00 0.79 0.79 89 1004.4
20260504160204 7 239 3.2 4.8 0.00 0.79 0.79 93 1004.3
20260504150704 6 239 1.6 3.2 0.03 0.79 0.79 94 1004.0
20260504140706 5 238 4.8 8.0 0.23 0.76 0.76 93 1003.7
20260504140204 5 211 4.8 8.0 0.25 0.76 0.76 93 1003.6
20260504130704 5 153 0.0 0.0 0.43 0.51 0.51 91 1003.2
20260504130204 5 153 0.0 0.0 0.43 0.51 0.51 91 1003.3
20260504120204 5 153 3.2 4.8 0.08 0.08 0.08 87 1003.3
20260504110704 6 164 3.2 4.8 0.00 0.00 0.00 81 1003.6
20260504110204 5 165 4.8 11.3 0.00 0.00 0.00 80 1003.8
20260504100204 3 168 4.8 9.7 0.00 0.00 0.00 79 1004.1